MPEC 2023-G10 : 2023 FW13
The following Minor Planet Electronic Circular may be linked-to from your own Web pages, but must not otherwise be redistributed electronically.A form allowing access to any MPEC is at the bottom of this page.


M.P.E.C. 2023-G10 Issued 2023 April 1, 09:04 UT The Minor Planet Electronic Circulars contain information on unusual minor planets, routine data on comets and natural satellites, and occasional editorial announcements. They are published on behalf of Division F of the International Astronomical Union by the Minor Planet Center, Smithsonian Astrophysical Observatory, Cambridge, MA 02138, U.S.A. Prepared using the Tamkin Foundation Computer Network MPC@CFA.HARVARD.EDU URL https://www.minorplanetcenter.net/ ISSN 1523-6714 2023 FW13 Observations: K23F13W* C2023 03 28.39146813 36 27.717+25 02 06.46 21.87wUEG010F52 K23F13W C2023 03 28.40290213 36 23.162+25 01 53.37 22.15wUEG010F52 K23F13W C2023 03 28.42586213 36 14.031+25 01 26.48 21.67wUEG010F52 K23F13W 3C2023 03 30.56635613 23 51.350+24 13 08.44 21.99GVEG010T14 K23F13W 3C2023 03 30.56733413 23 50.991+24 13 06.91 21.83GVEG010T14 K23F13W 3C2023 03 30.56832113 23 50.634+24 13 05.36 21.75GVEG010T14 K23F13W 3C2023 03 30.56929913 23 50.281+24 13 03.87 21.89GVEG010T14 K23F13W DC2023 04 01.23345 13 15 09.08 +23 32 30.2 21.7 GVEG010695 K23F13W DC2023 04 01.24309 13 15 05.80 +23 32 16.9 22.3 GVEG010695 K23F13W DC2023 04 01.25272 13 15 02.56 +23 32 04.0 22.2 GVEG010695 K23F13W KC2023 04 01.28873313 14 50.280+23 31 12.40 22.39GVEG010I52 K23F13W KC2023 04 01.30256613 14 45.480+23 30 52.40 VEG010I52 K23F13W KC2023 04 01.32498313 14 37.830+23 30 19.10 22.98GVEG010I52 K23F13W KC2023 04 01.34627813 14 30.570+23 29 47.70 21.97GVEG010I52 Observer details: 695 Kitt Peak. Observer R. A. Mastaler. 2.3-m f/9 reflector + CCD. F52 Pan-STARRS 2, Haleakala. Observers J. Bulger, T. Lowe, A. Schultz, I. Smith. Measurers K. Chambers, S. Chastel, T. de Boer, J. Fairlamb, H. Gao, M. Huber, C.-C. Lin, E. Magnier, Y. Ramanjooloo, R. Wainscoat, R. Weryk. 1.8-m Ritchey-Chretien + CCD. I52 Steward Observatory, Mt. Lemmon Station. Observer J. K. Hogan. Measurers E. J. Christensen, D. Fay, J. B. Fazekas, D. C. Fuls, A. R. Gibbs, A. D. Grauer, H. Groeller, J. K. Hogan, R. A. Kowalski, S. M. Larson, G. J. Leonard, D. Rankin, R. L. Seaman, A. Serrano, F. C. Shelly, K. W. Wierzchos. 1.0-m prime focus + CCD. T14 Canada-France-Hawaii Telescope, Maunakea. Observers R. Wainscoat, L. Wells, E. Bertin. Measurers R. Weryk, R. Wainscoat. 3.6-m Canada-France- Hawaii Telescope + CCD. Orbital elements: 2023 FW13 Earth MOID = 0.0454 AU Epoch 2023 Feb. 25.0 TT = JDT 2460000.5 Veres M 73.12702 (2000.0) P Q n 0.98523955 Peri. 354.42983 +0.42324017 -0.90489498 a 1.0002491 Node 70.52422 +0.83309038 +0.36912975 e 0.1774409 Incl. 2.74112 +0.35612943 +0.21191581 P 1.00 H 26.10 G 0.15 U 6 Residuals in seconds of arc 230328 F52 0.1- 0.0 230330 T14 0.0 0.0 230401 I52 0.6+ 0.1+ 230328 F52 0.3- 0.0 230330 T14 0.0 0.0 230401 I52 0.5- 0.0 230328 F52 0.2+ 0.1+ 230401 695 0.3+ 0.2+ 230401 I52 0.3- 0.5- 230330 T14 0.0 0.0 230401 695 0.2- 0.1+ 230401 I52 0.0 0.2- 230330 T14 0.0 0.0 230401 695 0.0 0.4+ Ephemeris: 2023 FW13 a,e,i = 1.00, 0.18, 3 q = 0.8228 Date TT R. A. (2000) Decl. Delta r Elong. Phase V 2023 03 02 16 56 12.1 +24 13 42 0.06552 0.9947 91.5 84.7 23.1 ... 2023 03 17 14 56 50.4 +27 25 41 0.07104 1.0394 127.3 49.6 22.3 ... 2023 03 25 13 57 56.6 +26 07 31 0.07990 1.0617 142.7 34.7 22.2 ... 2023 03 31 13 21 34.0 +24 02 52 0.08981 1.0774 150.0 27.7 22.3 2023 04 01 13 16 17.6 +23 38 37 0.09173 1.0799 150.7 26.9 22.3 2023 04 02 13 11 15.0 +23 13 42 0.09373 1.0824 151.3 26.3 22.3 ... 2023 04 08 12 45 37.8 +20 35 44 0.1072 1.0969 152.1 25.3 22.6 ... 2023 04 16 12 22 26.5 +17 01 46 0.1290 1.1146 147.8 28.7 23.1 ... 2023 05 01 12 03 59.8 +10 53 49 0.1794 1.1422 135.5 38.2 24.2 M. P. C. Staff (C) Copyright 2023 MPC M.P.E.C. 2023-G10


Enter an MPEC number in one of the following forms:
- 1997-B01 (the full form)
- J97B01 (the packed version of the full form)
- B01 (the abbreviated form)